| time (UTC) | temp C | wind direction | speed KPH | gust KPH | rain 1hr cm | rain 24hr cm | rain mn cm | humidity % | barometer mb |
| 20260906130003 | 13 | 13 | 14.5 | 19.3 | 0.00 | 0.00 | 0.00 | 90 | 1014.5 |
| 20260906124546 | 13 | 5 | 11.3 | 22.5 | 0.00 | 0.00 | 0.00 | 91 | 1014.3 |
| 20260906123045 | 13 | 327 | 16.1 | 24.1 | 0.00 | 0.03 | 0.00 | 92 | 1013.9 |
| 20260906121526 | 12 | 24 | 17.7 | 22.5 | 0.00 | 0.03 | 0.00 | 92 | 1014.0 |
| 20260906120026 | 12 | 12 | 19.3 | 25.7 | 0.00 | 0.03 | 0.00 | 92 | 1013.8 |
| 20260906114525 | 12 | 13 | 19.3 | 27.4 | 0.00 | 0.03 | 0.00 | 92 | 1013.7 |
| 20260906113009 | 12 | 15 | 19.3 | 29.0 | 0.00 | 0.03 | 0.00 | 92 | 1013.9 |
| 20260906111551 | 12 | 12 | 19.3 | 25.7 | 0.00 | 0.03 | 0.00 | 91 | 1014.0 |
| 20260906110051 | 12 | 17 | 19.3 | 25.7 | 0.00 | 0.03 | 0.00 | 91 | 1013.9 |
| 20260906104535 | 12 | 360 | 19.3 | 29.0 | 0.00 | 0.03 | 0.00 | 91 | 1013.9 |
| 20260906103034 | 12 | 13 | 24.1 | 38.6 | 0.00 | 0.03 | 0.00 | 90 | 1014.1 |
| 20260906101512 | 12 | 13 | 25.7 | 37.0 | 0.00 | 0.03 | 0.00 | 90 | 1014.1 |
| 20260906100013 | 12 | 22 | 25.7 | 37.0 | 0.00 | 0.03 | 0.00 | 89 | 1014.1 |
| 20260906094616 | 12 | 19 | 27.4 | 40.2 | 0.00 | 0.03 | 0.00 | 89 | 1013.9 |
| 20260906093119 | 12 | 10 | 27.4 | 38.6 | 0.00 | 0.03 | 0.00 | 89 | 1014.0 |
| 20260906091548 | 12 | 314 | 25.7 | 40.2 | 0.00 | 0.03 | 0.00 | 88 | 1014.0 |
| 20260906090032 | 12 | 5 | 29.0 | 38.6 | 0.00 | 0.03 | 0.00 | 88 | 1014.2 |
| 20260906084528 | 12 | 15 | 25.7 | 37.0 | 0.00 | 0.03 | 0.00 | 87 | 1014.3 |
| 20260906083010 | 12 | 315 | 25.7 | 37.0 | 0.00 | 0.03 | 0.00 | 87 | 1014.4 |
| 20260906081513 | 12 | 13 | 25.7 | 35.4 | 0.00 | 0.03 | 0.00 | 86 | 1014.6 |
| 20260906080049 | 13 | 360 | 30.6 | 38.6 | 0.00 | 0.03 | 0.00 | 85 | 1014.5 |
| 20260906074548 | 13 | 360 | 25.7 | 37.0 | 0.00 | 0.03 | 0.00 | 84 | 1014.8 |
| 20260906073036 | 13 | 24 | 27.4 | 38.6 | 0.00 | 0.03 | 0.00 | 84 | 1014.9 |
| 20260906071532 | 13 | 12 | 29.0 | 40.2 | 0.00 | 0.03 | 0.00 | 83 | 1015.1 |
| 20260906070033 | 13 | 360 | 29.0 | 35.4 | 0.00 | 0.03 | 0.00 | 82 | 1015.3 |
| 20260906064531 | 13 | 5 | 25.7 | 40.2 | 0.00 | 0.03 | 0.00 | 82 | 1015.5 |
| 20260906063034 | 13 | 15 | 29.0 | 40.2 | 0.00 | 0.03 | 0.00 | 82 | 1015.7 |
| 20260906061530 | 13 | 12 | 27.4 | 35.4 | 0.00 | 0.03 | 0.00 | 82 | 1015.6 |
| 20260906060027 | 13 | 20 | 25.7 | 35.4 | 0.00 | 0.03 | 0.00 | 81 | 1015.7 |
| 20260906054524 | 14 | 9 | 25.7 | 37.0 | 0.00 | 0.03 | 0.00 | 80 | 1015.8 |
| 20260906053009 | 14 | 16 | 27.4 | 38.6 | 0.00 | 0.03 | 0.00 | 79 | 1015.6 |
| 20260906051504 | 14 | 15 | 27.4 | 37.0 | 0.00 | 0.03 | 0.00 | 77 | 1015.6 |
| 20260906050047 | 14 | 13 | 29.0 | 38.6 | 0.00 | 0.03 | 0.00 | 76 | 1015.6 |
| 20260906044546 | 15 | 13 | 27.4 | 40.2 | 0.00 | 0.03 | 0.00 | 75 | 1015.4 |
| 20260906043025 | 15 | 360 | 27.4 | 41.8 | 0.00 | 0.03 | 0.00 | 74 | 1015.1 |
| 20260906041523 | 15 | 13 | 33.8 | 46.7 | 0.00 | 0.03 | 0.00 | 73 | 1014.7 |
| 20260906040010 | 15 | 5 | 32.2 | 41.8 | 0.00 | 0.03 | 0.00 | 73 | 1015.0 |
| 20260906034502 | 15 | 315 | 27.4 | 41.8 | 0.00 | 0.03 | 0.00 | 72 | 1015.1 |
| 20260906033048 | 15 | 318 | 27.4 | 38.6 | 0.00 | 0.03 | 0.00 | 71 | 1015.1 |
| 20260906031543 | 15 | 5 | 24.1 | 38.6 | 0.00 | 0.03 | 0.00 | 70 | 1014.7 |
| 20260906030040 | 15 | 5 | 25.7 | 41.8 | 0.00 | 0.03 | 0.00 | 69 | 1014.3 |
| 20260906024547 | 16 | 309 | 30.6 | 46.7 | 0.00 | 0.03 | 0.00 | 68 | 1014.0 |
| 20260906023035 | 16 | 5 | 30.6 | 45.1 | 0.00 | 0.03 | 0.00 | 67 | 1014.0 |
| 20260906021533 | 16 | 360 | 27.4 | 40.2 | 0.00 | 0.03 | 0.00 | 66 | 1014.2 |
| 20260906020030 | 17 | 331 | 27.4 | 43.5 | 0.00 | 0.03 | 0.00 | 65 | 1014.1 |
| 20260906014538 | 17 | 360 | 30.6 | 41.8 | 0.00 | 0.03 | 0.00 | 62 | 1014.0 |
| 20260906013037 | 18 | 10 | 25.7 | 38.6 | 0.00 | 0.03 | 0.00 | 60 | 1014.0 |
| 20260906011521 | 19 | 22 | 30.6 | 41.8 | 0.00 | 0.03 | 0.00 | 56 | 1013.8 |
| 20260906010025 | 20 | 17 | 27.4 | 38.6 | 0.00 | 0.03 | 0.00 | 52 | 1013.7 |
| 20260906004519 | 21 | 349 | 29.0 | 40.2 | 0.00 | 0.03 | 0.00 | 47 | 1013.7 |
| 20260906003018 | 23 | 17 | 20.9 | 27.4 | 0.00 | 0.03 | 0.00 | 38 | 1013.8 |
| 20260906001522 | 23 | 5 | 17.7 | 32.2 | 0.00 | 0.03 | 0.00 | 36 | 1013.7 |
| 20260906000057 | 23 | 13 | 20.9 | 29.0 | 0.00 | 0.03 | 0.00 | 35 | 1013.8 |
| 20260905234604 | 23 | 40 | 19.3 | 27.4 | 0.00 | 0.03 | 0.00 | 35 | 1013.7 |
| 20260905233038 | 23 | 65 | 9.7 | 25.7 | 0.00 | 0.03 | 0.00 | 35 | 1013.7 |
| 20260905231540 | 23 | 19 | 12.9 | 33.8 | 0.00 | 0.03 | 0.00 | 34 | 1013.8 |
| 20260905230018 | 23 | 38 | 9.7 | 33.8 | 0.00 | 0.03 | 0.00 | 34 | 1013.8 |
| 20260905224519 | 24 | 48 | 12.9 | 27.4 | 0.00 | 0.03 | 0.00 | 34 | 1013.6 |
| 20260905223059 | 24 | 347 | 12.9 | 25.7 | 0.00 | 0.03 | 0.00 | 34 | 1013.6 |
| 20260905221615 | 24 | 46 | 12.9 | 24.1 | 0.00 | 0.03 | 0.00 | 34 | 1013.7 |
| 20260905220041 | 24 | 52 | 14.5 | 33.8 | 0.00 | 0.03 | 0.00 | 35 | 1013.7 |
| 20260905214539 | 24 | 55 | 4.8 | 41.8 | 0.00 | 0.03 | 0.00 | 35 | 1013.9 |
| 20260905213020 | 23 | 347 | 3.2 | 12.9 | 0.00 | 0.03 | 0.00 | 37 | 1014.1 |
| 20260905211532 | 23 | 17 | 16.1 | 29.0 | 0.00 | 0.03 | 0.00 | 36 | 1014.0 |
| 20260905210100 | 23 | 49 | 14.5 | 19.3 | 0.00 | 0.03 | 0.00 | 37 | 1014.2 |
| 20260905204557 | 23 | 20 | 11.3 | 22.5 | 0.00 | 0.03 | 0.00 | 37 | 1014.1 |
| 20260905203042 | 23 | 335 | 11.3 | 17.7 | 0.00 | 0.03 | 0.00 | 37 | 1014.2 |
| 20260905201539 | 23 | 25 | 14.5 | 22.5 | 0.00 | 0.03 | 0.00 | 37 | 1014.4 |
| 20260905200020 | 22 | 327 | 11.3 | 24.1 | 0.00 | 0.03 | 0.00 | 38 | 1014.4 |
| 20260905194517 | 22 | 330 | 16.1 | 27.4 | 0.00 | 0.03 | 0.00 | 38 | 1014.5 |
| 20260905193111 | 22 | 347 | 12.9 | 27.4 | 0.00 | 0.03 | 0.00 | 39 | 1014.6 |
| 20260905191556 | 22 | 11 | 11.3 | 22.5 | 0.00 | 0.03 | 0.00 | 40 | 1014.8 |
| 20260905190036 | 22 | 319 | 17.7 | 24.1 | 0.00 | 0.03 | 0.00 | 39 | 1015.0 |
| 20260905184542 | 22 | 305 | 14.5 | 22.5 | 0.00 | 0.03 | 0.00 | 41 | 1015.1 |
| 20260905183015 | 21 | 311 | 20.9 | 27.4 | 0.00 | 0.03 | 0.00 | 43 | 1015.2 |
| 20260905181513 | 21 | 258 | 9.7 | 24.1 | 0.00 | 0.03 | 0.00 | 45 | 1015.4 |
| 20260905180055 | 21 | 23 | 14.5 | 22.5 | 0.00 | 0.03 | 0.00 | 47 | 1015.3 |
| 20260905174602 | 21 | 5 | 12.9 | 25.7 | 0.00 | 0.03 | 0.00 | 47 | 1015.5 |
| 20260905173032 | 20 | 320 | 9.7 | 17.7 | 0.00 | 0.03 | 0.00 | 48 | 1015.4 |
| 20260905171533 | 20 | 341 | 8.0 | 17.7 | 0.00 | 0.03 | 0.00 | 49 | 1015.2 |
| 20260905170014 | 19 | 19 | 11.3 | 16.1 | 0.00 | 0.03 | 0.00 | 50 | 1015.1 |
| 20260905164510 | 18 | 5 | 11.3 | 16.1 | 0.00 | 0.03 | 0.00 | 55 | 1015.2 |
| 20260905163048 | 18 | 333 | 9.7 | 19.3 | 0.00 | 0.03 | 0.03 | 59 | 1015.0 |
| 20260905161559 | 18 | 318 | 14.5 | 22.5 | 0.00 | 0.03 | 0.03 | 62 | 1015.0 |
| 20260905160031 | 18 | 323 | 14.5 | 19.3 | 0.00 | 0.03 | 0.03 | 62 | 1015.2 |
| 20260905154529 | 17 | 346 | 12.9 | 22.5 | 0.00 | 0.03 | 0.03 | 62 | 1015.0 |
| 20260905153013 | 17 | 324 | 17.7 | 24.1 | 0.00 | 0.03 | 0.03 | 65 | 1014.9 |
| 20260905151511 | 15 | 315 | 14.5 | 25.7 | 0.00 | 0.03 | 0.03 | 73 | 1015.0 |
| 20260905150054 | 15 | 302 | 17.7 | 29.0 | 0.00 | 0.03 | 0.03 | 75 | 1014.9 |
| 20260905144552 | 14 | 303 | 24.1 | 33.8 | 0.00 | 0.03 | 0.03 | 75 | 1014.8 |
| 20260905143036 | 13 | 299 | 17.7 | 25.7 | 0.00 | 0.03 | 0.03 | 76 | 1015.1 |
| 20260905141536 | 13 | 311 | 16.1 | 22.5 | 0.00 | 0.03 | 0.03 | 78 | 1014.7 |
| 20260905140016 | 12 | 298 | 14.5 | 24.1 | 0.00 | 0.03 | 0.03 | 81 | 1014.8 |
| 20260905134516 | 11 | 246 | 9.7 | 12.9 | 0.00 | 0.03 | 0.03 | 85 | 1015.1 |
| 20260905133058 | 11 | 263 | 8.0 | 12.9 | 0.00 | 0.03 | 0.03 | 84 | 1015.3 |
| 20260905131606 | 11 | 224 | 8.0 | 12.9 | 0.03 | 0.03 | 0.03 | 83 | 1015.0 |